Location: D�pe
(52.6057°N, 8.1808°E)
Time: 12:44:40
(UTC+00:00)

Cosmos 1812 Rocket - Pass Details

Date: 29 October 2020
Orbit: 605 x 633 km, 82.5° (Epoch: 28 November)

Event Time Altitude Azimuth Distance (km) Brightness Sun altitude
Rises 17:22:35 0° 157° (SSE) 2,889 6.8 -12.7°
Reaches altitude 10° 17:25:04 10° 144° (SE) 1,983 5.9 -13.0°
Maximum altitude 17:28:43 26° 88° (E) 1,221 4.5 -13.6°
Drops below altitude 10° 17:32:21 10° 32° (NNE) 1,983 5.8 -14.1°
Sets 17:34:50 0° 20° (NNE) 2,889 6.8 -14.5°
